Voltar ao catálogo

SL-12 R/B(2)

AtivoGEO
NORAD 27780·ROCKET BODY·🇷🇺 Russia

Lançado Apr 24, 2003 de Baikonur Cosmodrome

Loading…

TLE

AtualizadoSource: Space-Track

Época: Sep 14, 2026, 19:26 UTC

1 27780U 03015F   26257.81037443 -.00000354  00000-0  00000-0 0  9998
2 27780  12.8499  19.7117 0009333  43.4712 330.6269  1.00190129 85403

Acompanhe SL-12 R/B(2) em tempo real com AllMySat

Download on the App Store